contact:dominique.lefevre@mio.osupytheas.fr, maurice.libes@osupytheas.fr, didier.mallarino@osupytheas.fr
Project:EMSO http://www.emso-fr.org/EMSO-France
Depth: 2436.0 m
Title:EMSO Ligure Ouest : Data MII capteur MICROCAT
DateTime_Computer,Latitude,Longitude,Temperature,Conductivity,Pressure,DateTime_Instrument
DateTime_Computer,Latitude,Longitude,degC,S m-1,dbar,DateTime_Instrument
2021-04-10T00:02:34Z,42.805,6.029,13.3004,4.60040,2469.004,2021-4-10T02:03:42Z
2021-04-10T00:05:37Z,42.805,6.029,13.2990,4.60040,2469.013,2021-4-10T02:06:45Z
2021-04-10T00:08:40Z,42.805,6.029,13.2989,4.60031,2469.06,2021-4-10T02:09:48Z
2021-04-10T00:11:43Z,42.805,6.029,13.2993,4.60040,2469.027,2021-4-10T02:12:51Z
2021-04-10T00:14:46Z,42.805,6.029,13.3002,4.60049,2469.004,2021-4-10T02:15:54Z
2021-04-10T00:17:49Z,42.805,6.029,13.3002,4.60057,2469.05,2021-4-10T02:18:57Z
2021-04-10T00:20:52Z,42.805,6.029,13.3003,4.60051,2469.05,2021-4-10T02:22:01Z
2021-04-10T00:23:56Z,42.805,6.029,13.2996,4.60037,2469.027,2021-4-10T02:25:04Z
2021-04-10T00:26:59Z,42.805,6.029,13.3004,4.60041,2469.073,2021-4-10T02:28:07Z
2021-04-10T00:30:02Z,42.805,6.029,13.3006,4.60039,2469.036,2021-4-10T02:31:10Z
2021-04-10T00:33:05Z,42.805,6.029,13.2999,4.60051,2469.06,2021-4-10T02:34:13Z
2021-04-10T00:36:08Z,42.805,6.029,13.3009,4.60058,2469.036,2021-4-10T02:37:16Z
2021-04-10T00:39:11Z,42.805,6.029,13.3000,4.60036,2469.064,2021-4-10T02:40:19Z
2021-04-10T00:42:14Z,42.805,6.029,13.3004,4.60041,2469.05,2021-4-10T02:43:22Z
2021-04-10T00:45:17Z,42.805,6.029,13.2993,4.60028,2469.05,2021-4-10T02:46:26Z
2021-04-10T00:48:21Z,42.805,6.029,13.2999,4.60055,2469.05,2021-4-10T02:49:29Z
2021-04-10T00:51:24Z,42.805,6.029,13.2997,4.60031,2469.06,2021-4-10T02:52:32Z
2021-04-10T00:54:27Z,42.805,6.029,13.2995,4.60032,2469.046,2021-4-10T02:55:35Z
2021-04-10T00:57:30Z,42.805,6.029,13.2991,4.60045,2469.073,2021-4-10T02:58:38Z
2021-04-10T01:00:33Z,42.805,6.029,13.3001,4.60026,2469.05,2021-4-10T03:01:41Z
2021-04-10T01:03:36Z,42.805,6.029,13.3007,4.60034,2469.013,2021-4-10T03:04:44Z
2021-04-10T01:06:39Z,42.805,6.029,13.2991,4.60036,2469.05,2021-4-10T03:07:47Z
2021-04-10T01:09:42Z,42.805,6.029,13.2991,4.60023,2469.036,2021-4-10T03:10:51Z
2021-04-10T01:12:45Z,42.805,6.029,13.2996,4.60035,2469.036,2021-4-10T03:13:54Z
2021-04-10T01:15:49Z,42.805,6.029,13.2995,4.60041,2469.036,2021-4-10T03:16:57Z
2021-04-10T01:18:52Z,42.805,6.029,13.2987,4.60043,2469.05,2021-4-10T03:20:00Z
2021-04-10T01:21:55Z,42.805,6.029,13.2996,4.60046,2469.05,2021-4-10T03:23:03Z
2021-04-10T01:24:58Z,42.805,6.029,13.2993,4.60030,2469.06,2021-4-10T03:26:06Z
2021-04-10T01:28:01Z,42.805,6.029,13.2999,4.60033,2469.097,2021-4-10T03:29:09Z
2021-04-10T01:31:04Z,42.805,6.029,13.2990,4.60039,2469.073,2021-4-10T03:32:12Z
2021-04-10T01:34:07Z,42.805,6.029,13.2991,4.60031,2469.097,2021-4-10T03:35:16Z
2021-04-10T01:37:10Z,42.805,6.029,13.2998,4.60037,2469.036,2021-4-10T03:38:19Z
2021-04-10T01:40:14Z,42.805,6.029,13.2996,4.60019,2469.036,2021-4-10T03:41:22Z
2021-04-10T01:43:17Z,42.805,6.029,13.2993,4.60019,2469.083,2021-4-10T03:44:25Z
2021-04-10T01:46:20Z,42.805,6.029,13.2994,4.60016,2469.083,2021-4-10T03:47:28Z
2021-04-10T01:49:23Z,42.805,6.029,13.2998,4.60036,2469.097,2021-4-10T03:50:31Z
2021-04-10T01:52:26Z,42.805,6.029,13.3001,4.60037,2469.13,2021-4-10T03:53:34Z
2021-04-10T01:55:29Z,42.805,6.029,13.2999,4.60025,2469.106,2021-4-10T03:56:37Z
2021-04-10T01:58:32Z,42.805,6.029,13.2995,4.60035,2469.144,2021-4-10T03:59:41Z
2021-04-10T02:01:35Z,42.805,6.029,13.2996,4.60044,2469.13,2021-4-10T04:02:44Z
2021-04-10T02:04:39Z,42.805,6.029,13.2991,4.60064,2469.106,2021-4-10T04:05:47Z
2021-04-10T02:07:42Z,42.805,6.029,13.2993,4.60039,2469.167,2021-4-10T04:08:50Z
2021-04-10T02:10:45Z,42.805,6.029,13.2993,4.60048,2469.13,2021-4-10T04:11:53Z
2021-04-10T02:13:48Z,42.805,6.029,13.3001,4.60045,2469.153,2021-4-10T04:14:56Z
2021-04-10T02:16:51Z,42.805,6.029,13.2991,4.60031,2469.13,2021-4-10T04:17:59Z
2021-04-10T02:19:54Z,42.805,6.029,13.2989,4.60020,2469.176,2021-4-10T04:21:02Z
2021-04-10T02:22:57Z,42.805,6.029,13.2986,4.60021,2469.176,2021-4-10T04:24:05Z
2021-04-10T02:26:00Z,42.805,6.029,13.2990,4.60014,2469.176,2021-4-10T04:27:09Z
2021-04-10T02:29:04Z,42.805,6.029,13.2995,4.60046,2469.176,2021-4-10T04:30:12Z
2021-04-10T02:32:07Z,42.805,6.029,13.2993,4.60034,2469.214,2021-4-10T04:33:15Z
2021-04-10T02:35:10Z,42.805,6.029,13.2996,4.60016,2469.176,2021-4-10T04:36:18Z
2021-04-10T02:38:13Z,42.805,6.029,13.2995,4.60021,2469.153,2021-4-10T04:39:21Z
2021-04-10T02:41:16Z,42.805,6.029,13.2999,4.60022,2469.176,2021-4-10T04:42:24Z
2021-04-10T02:44:19Z,42.805,6.029,13.2996,4.60029,2469.176,2021-4-10T04:45:27Z
2021-04-10T02:47:22Z,42.805,6.029,13.2998,4.60055,2469.237,2021-4-10T04:48:30Z
2021-04-10T02:50:25Z,42.805,6.029,13.2995,4.60031,2469.2,2021-4-10T04:51:34Z
2021-04-10T02:53:29Z,42.805,6.029,13.2984,4.60028,2469.223,2021-4-10T04:54:37Z
2021-04-10T02:56:32Z,42.805,6.029,13.2994,4.60033,2469.2,2021-4-10T04:57:40Z
2021-04-10T02:59:35Z,42.805,6.029,13.2989,4.60031,2469.2,2021-4-10T05:00:43Z
2021-04-10T03:02:38Z,42.805,6.029,13.2990,4.60024,2469.214,2021-4-10T05:03:46Z
2021-04-10T03:05:41Z,42.805,6.029,13.2992,4.60033,2469.223,2021-4-10T05:06:49Z
2021-04-10T03:08:44Z,42.805,6.029,13.2986,4.60026,2469.223,2021-4-10T05:09:52Z
2021-04-10T03:11:47Z,42.805,6.029,13.2990,4.60020,2469.223,2021-4-10T05:12:55Z
2021-04-10T03:14:50Z,42.805,6.029,13.2989,4.60025,2469.237,2021-4-10T05:15:59Z
2021-04-10T03:17:53Z,42.805,6.029,13.2988,4.60041,2469.2,2021-4-10T05:19:02Z
2021-04-10T03:20:57Z,42.805,6.029,13.2994,4.60046,2469.223,2021-4-10T05:22:05Z
2021-04-10T03:24:00Z,42.805,6.029,13.3006,4.60044,2469.237,2021-4-10T05:25:08Z
2021-04-10T03:27:03Z,42.805,6.029,13.2993,4.60049,2469.214,2021-4-10T05:28:11Z
2021-04-10T03:30:06Z,42.805,6.029,13.2992,4.60032,2469.246,2021-4-10T05:31:14Z
2021-04-10T03:33:09Z,42.805,6.029,13.2993,4.60022,2469.214,2021-4-10T05:34:17Z
2021-04-10T03:36:12Z,42.805,6.029,13.2990,4.60026,2469.223,2021-4-10T05:37:20Z
2021-04-10T03:39:15Z,42.805,6.029,13.2993,4.60020,2469.2,2021-4-10T05:40:24Z
2021-04-10T03:42:18Z,42.805,6.029,13.3001,4.60056,2469.223,2021-4-10T05:43:27Z
2021-04-10T03:45:22Z,42.805,6.029,13.2995,4.60027,2469.237,2021-4-10T05:46:30Z
2021-04-10T03:48:25Z,42.805,6.029,13.2992,4.60049,2469.26,2021-4-10T05:49:33Z
2021-04-10T03:51:28Z,42.805,6.029,13.2997,4.60016,2469.26,2021-4-10T05:52:36Z
2021-04-10T03:54:31Z,42.805,6.029,13.2989,4.60019,2469.237,2021-4-10T05:55:39Z
2021-04-10T03:57:34Z,42.805,6.029,13.3006,4.60056,2469.246,2021-4-10T05:58:42Z
2021-04-10T04:00:37Z,42.805,6.029,13.3001,4.60048,2469.246,2021-4-10T06:01:45Z
2021-04-10T04:03:40Z,42.805,6.029,13.2991,4.60046,2469.293,2021-4-10T06:04:49Z
2021-04-10T04:06:43Z,42.805,6.029,13.2999,4.60039,2469.284,2021-4-10T06:07:52Z
2021-04-10T04:09:47Z,42.805,6.029,13.2999,4.60024,2469.26,2021-4-10T06:10:55Z
2021-04-10T04:12:50Z,42.805,6.029,13.2986,4.60031,2469.284,2021-4-10T06:13:58Z
2021-04-10T04:15:53Z,42.805,6.029,13.3000,4.60026,2469.307,2021-4-10T06:17:01Z
2021-04-10T04:18:56Z,42.805,6.029,13.3003,4.60026,2469.284,2021-4-10T06:20:04Z
2021-04-10T04:21:59Z,42.805,6.029,13.2996,4.60029,2469.284,2021-4-10T06:23:07Z
2021-04-10T04:25:02Z,42.805,6.029,13.3008,4.60051,2469.307,2021-4-10T06:26:10Z
2021-04-10T04:28:05Z,42.805,6.029,13.2987,4.60041,2469.307,2021-4-10T06:29:13Z
2021-04-10T04:31:08Z,42.805,6.029,13.2999,4.60048,2469.307,2021-4-10T06:32:17Z
2021-04-10T04:34:12Z,42.805,6.029,13.3000,4.60049,2469.284,2021-4-10T06:35:20Z
2021-04-10T04:37:15Z,42.805,6.029,13.3014,4.60044,2469.354,2021-4-10T06:38:23Z
2021-04-10T04:40:18Z,42.805,6.029,13.2992,4.60055,2469.307,2021-4-10T06:41:26Z
2021-04-10T04:43:21Z,42.805,6.029,13.3000,4.60039,2469.34,2021-4-10T06:44:29Z
2021-04-10T04:46:24Z,42.805,6.029,13.2998,4.60046,2469.33,2021-4-10T06:47:32Z
2021-04-10T04:49:27Z,42.805,6.029,13.3014,4.60037,2469.316,2021-4-10T06:50:35Z
2021-04-10T04:52:30Z,42.805,6.029,13.3016,4.60049,2469.33,2021-4-10T06:53:38Z
2021-04-10T04:55:33Z,42.805,6.029,13.3023,4.60061,2469.33,2021-4-10T06:56:42Z
2021-04-10T04:58:37Z,42.805,6.029,13.3013,4.60055,2469.316,2021-4-10T06:59:45Z
2021-04-10T05:01:40Z,42.805,6.029,13.3007,4.60046,2469.33,2021-4-10T07:02:48Z
2021-04-10T05:04:43Z,42.805,6.029,13.3002,4.60043,2469.363,2021-4-10T07:05:51Z
2021-04-10T05:07:46Z,42.805,6.029,13.3006,4.60051,2469.33,2021-4-10T07:08:54Z
2021-04-10T05:10:49Z,42.805,6.029,13.3027,4.60053,2469.293,2021-4-10T07:11:57Z
2021-04-10T05:13:52Z,42.805,6.029,13.3014,4.60056,2469.316,2021-4-10T07:15:00Z
2021-04-10T05:16:55Z,42.805,6.029,13.3014,4.60054,2469.33,2021-4-10T07:18:03Z
2021-04-10T05:19:58Z,42.805,6.029,13.2999,4.60041,2469.34,2021-4-10T07:21:07Z
2021-04-10T05:23:02Z,42.805,6.029,13.2998,4.60037,2469.354,2021-4-10T07:24:10Z
2021-04-10T05:26:05Z,42.805,6.029,13.3005,4.60061,2469.377,2021-4-10T07:27:13Z
2021-04-10T05:29:08Z,42.805,6.029,13.2999,4.60064,2469.354,2021-4-10T07:30:16Z
2021-04-10T05:32:11Z,42.805,6.029,13.2989,4.60031,2469.326,2021-4-10T07:33:19Z
2021-04-10T05:35:14Z,42.805,6.029,13.3004,4.60047,2469.377,2021-4-10T07:36:22Z
2021-04-10T05:38:17Z,42.805,6.029,13.3006,4.60046,2469.363,2021-4-10T07:39:25Z
2021-04-10T05:41:20Z,42.805,6.029,13.3013,4.60025,2469.34,2021-4-10T07:42:28Z
2021-04-10T05:44:23Z,42.805,6.029,13.3024,4.60069,2469.377,2021-4-10T07:45:32Z
2021-04-10T05:47:27Z,42.805,6.029,13.3027,4.60029,2469.377,2021-4-10T07:48:35Z
2021-04-10T05:50:30Z,42.805,6.029,13.3037,4.60054,2469.386,2021-4-10T07:51:38Z
2021-04-10T05:53:33Z,42.805,6.029,13.3043,4.60071,2469.377,2021-4-10T07:54:41Z
2021-04-10T05:56:36Z,42.805,6.029,13.3039,4.60027,2469.354,2021-4-10T07:57:44Z
2021-04-10T05:59:39Z,42.805,6.029,13.3036,4.60087,2469.386,2021-4-10T08:00:47Z
2021-04-10T06:02:42Z,42.805,6.029,13.3048,4.60069,2469.377,2021-4-10T08:03:50Z
2021-04-10T06:05:45Z,42.805,6.029,13.3024,4.60165,2469.363,2021-4-10T08:06:53Z
2021-04-10T06:08:48Z,42.805,6.029,13.3036,4.60030,2469.363,2021-4-10T08:09:57Z
2021-04-10T06:11:51Z,42.805,6.029,13.2990,4.60035,2469.377,2021-4-10T08:13:00Z
2021-04-10T06:14:55Z,42.805,6.029,13.2992,4.60026,2469.34,2021-4-10T08:16:03Z
2021-04-10T06:17:58Z,42.805,6.029,13.3004,4.60102,2469.363,2021-4-10T08:19:06Z
2021-04-10T06:21:01Z,42.805,6.029,13.3030,4.60064,2469.4,2021-4-10T08:22:09Z
2021-04-10T06:24:04Z,42.805,6.029,13.3030,4.60072,2469.386,2021-4-10T08:25:12Z
2021-04-10T06:27:07Z,42.805,6.029,13.3029,4.60085,2469.34,2021-4-10T08:28:15Z
2021-04-10T06:30:10Z,42.805,6.029,13.3027,4.60085,2469.363,2021-4-10T08:31:18Z
2021-04-10T06:33:13Z,42.805,6.029,13.3033,4.60044,2469.349,2021-4-10T08:34:22Z
2021-04-10T06:36:16Z,42.805,6.029,13.3042,4.60080,2469.377,2021-4-10T08:37:25Z
2021-04-10T06:39:20Z,42.805,6.029,13.3035,4.60042,2469.34,2021-4-10T08:40:28Z
2021-04-10T06:42:23Z,42.805,6.029,13.3036,4.60056,2469.34,2021-4-10T08:43:31Z
2021-04-10T06:45:26Z,42.805,6.029,13.3037,4.60033,2469.34,2021-4-10T08:46:34Z
2021-04-10T06:48:29Z,42.805,6.029,13.3030,4.60086,2469.363,2021-4-10T08:49:37Z
2021-04-10T06:51:32Z,42.805,6.029,13.3043,4.60107,2469.354,2021-4-10T08:52:40Z
2021-04-10T06:54:35Z,42.805,6.029,13.3053,4.60048,2469.4,2021-4-10T08:55:43Z
2021-04-10T06:57:38Z,42.805,6.029,13.3054,4.60014,2469.363,2021-4-10T08:58:47Z
2021-04-10T07:00:41Z,42.805,6.029,13.3026,4.60043,2469.354,2021-4-10T09:01:50Z
2021-04-10T07:03:45Z,42.805,6.029,13.3009,4.60038,2469.363,2021-4-10T09:04:53Z
2021-04-10T07:06:48Z,42.805,6.029,13.3057,4.60023,2469.41,2021-4-10T09:07:56Z
2021-04-10T07:09:51Z,42.805,6.029,13.3030,4.60014,2469.34,2021-4-10T09:10:59Z
2021-04-10T07:12:54Z,42.805,6.029,13.3048,4.60046,2469.363,2021-4-10T09:14:02Z
2021-04-10T07:15:57Z,42.805,6.029,13.3024,4.60036,2469.34,2021-4-10T09:17:05Z
2021-04-10T07:19:00Z,42.805,6.029,13.3007,4.60074,2469.377,2021-4-10T09:20:08Z
2021-04-10T07:22:03Z,42.805,6.029,13.3019,4.60058,2469.34,2021-4-10T09:23:11Z
2021-04-10T07:25:06Z,42.805,6.029,13.3034,4.60097,2469.377,2021-4-10T09:26:15Z
2021-04-10T07:28:10Z,42.805,6.029,13.3042,4.60049,2469.34,2021-4-10T09:29:18Z
2021-04-10T07:31:13Z,42.805,6.029,13.2999,4.60029,2469.354,2021-4-10T09:32:21Z
2021-04-10T07:34:16Z,42.805,6.029,13.3008,4.60084,2469.354,2021-4-10T09:35:24Z
2021-04-10T07:37:19Z,42.805,6.029,13.3026,4.60046,2469.354,2021-4-10T09:38:27Z
2021-04-10T07:40:22Z,42.805,6.029,13.3012,4.60059,2469.363,2021-4-10T09:41:30Z
2021-04-10T07:43:25Z,42.805,6.029,13.3011,4.60056,2469.377,2021-4-10T09:44:33Z
2021-04-10T07:46:28Z,42.805,6.029,13.3041,4.60079,2469.354,2021-4-10T09:47:36Z
2021-04-10T07:49:31Z,42.805,6.029,13.3033,4.60069,2469.34,2021-4-10T09:50:40Z
2021-04-10T07:52:34Z,42.805,6.029,13.3020,4.60053,2469.34,2021-4-10T09:53:43Z
2021-04-10T07:55:38Z,42.805,6.029,13.3041,4.60058,2469.354,2021-4-10T09:56:46Z
2021-04-10T07:58:41Z,42.805,6.029,13.3031,4.60059,2469.34,2021-4-10T09:59:49Z
2021-04-10T08:01:44Z,42.805,6.029,13.3046,4.60051,2469.354,2021-4-10T10:02:52Z
2021-04-10T08:04:47Z,42.805,6.029,13.3011,4.60043,2469.34,2021-4-10T10:05:55Z
2021-04-10T08:07:50Z,42.805,6.029,13.3017,4.60019,2469.293,2021-4-10T10:08:58Z
2021-04-10T08:10:53Z,42.805,6.029,13.3033,4.60019,2469.316,2021-4-10T10:12:01Z
2021-04-10T08:13:56Z,42.805,6.029,13.3038,4.60068,2469.354,2021-4-10T10:15:05Z
2021-04-10T08:17:00Z,42.805,6.029,13.3034,4.60019,2469.316,2021-4-10T10:18:08Z
2021-04-10T08:20:03Z,42.805,6.029,13.3015,4.60026,2469.316,2021-4-10T10:21:11Z
2021-04-10T08:23:06Z,42.805,6.029,13.3019,4.60019,2469.307,2021-4-10T10:24:14Z
2021-04-10T08:26:09Z,42.805,6.029,13.3023,4.60020,2469.33,2021-4-10T10:27:17Z
2021-04-10T08:29:12Z,42.805,6.029,13.2997,4.60059,2469.293,2021-4-10T10:30:20Z
2021-04-10T08:32:15Z,42.805,6.029,13.3014,4.60044,2469.33,2021-4-10T10:33:23Z
2021-04-10T08:35:18Z,42.805,6.029,13.3010,4.60033,2469.33,2021-4-10T10:36:26Z
2021-04-10T08:38:21Z,42.805,6.029,13.3019,4.60025,2469.307,2021-4-10T10:39:30Z
2021-04-10T08:41:25Z,42.805,6.029,13.3016,4.60012,2469.246,2021-4-10T10:42:33Z
2021-04-10T08:44:28Z,42.805,6.029,13.3042,4.60005,2469.284,2021-4-10T10:45:36Z
2021-04-10T08:47:31Z,42.805,6.029,13.3029,4.60038,2469.307,2021-4-10T10:48:39Z
2021-04-10T08:50:34Z,42.805,6.029,13.3020,4.60063,2469.27,2021-4-10T10:51:42Z
2021-04-10T08:53:37Z,42.805,6.029,13.3013,4.60026,2469.293,2021-4-10T10:54:45Z
2021-04-10T08:56:40Z,42.805,6.029,13.3029,4.60016,2469.284,2021-4-10T10:57:48Z
2021-04-10T08:59:43Z,42.805,6.029,13.3040,4.60056,2469.246,2021-4-10T11:00:51Z
2021-04-10T09:02:46Z,42.805,6.029,13.3059,4.60082,2469.246,2021-4-10T11:03:55Z
2021-04-10T09:05:50Z,42.805,6.029,13.3054,4.60041,2469.26,2021-4-10T11:06:58Z
2021-04-10T09:08:53Z,42.805,6.029,13.3046,4.60045,2469.284,2021-4-10T11:10:01Z
2021-04-10T09:11:56Z,42.805,6.029,13.3051,4.60029,2469.26,2021-4-10T11:13:04Z
2021-04-10T09:14:59Z,42.805,6.029,13.3056,4.60025,2469.27,2021-4-10T11:16:07Z
2021-04-10T09:18:02Z,42.805,6.029,13.3027,4.60071,2469.26,2021-4-10T11:19:10Z
2021-04-10T09:21:05Z,42.805,6.029,13.3044,4.60069,2469.27,2021-4-10T11:22:13Z
2021-04-10T09:24:08Z,42.805,6.029,13.3039,4.60043,2469.284,2021-4-10T11:25:16Z
2021-04-10T09:27:11Z,42.805,6.029,13.3021,4.60056,2469.237,2021-4-10T11:28:20Z
2021-04-10T09:30:15Z,42.805,6.029,13.3025,4.60056,2469.293,2021-4-10T11:31:23Z
2021-04-10T09:33:18Z,42.805,6.029,13.3020,4.60041,2469.246,2021-4-10T11:34:26Z
2021-04-10T09:36:21Z,42.805,6.029,13.3047,4.60066,2469.26,2021-4-10T11:37:29Z
2021-04-10T09:39:24Z,42.805,6.029,13.3064,4.60064,2469.223,2021-4-10T11:40:32Z
2021-04-10T09:42:27Z,42.805,6.029,13.3074,4.60048,2469.237,2021-4-10T11:43:35Z
2021-04-10T09:45:30Z,42.805,6.029,13.3031,4.60029,2469.27,2021-4-10T11:46:38Z
2021-04-10T09:48:33Z,42.805,6.029,13.3054,4.60033,2469.237,2021-4-10T11:49:41Z
2021-04-10T09:51:36Z,42.805,6.029,13.3061,4.60031,2469.27,2021-4-10T11:52:45Z
2021-04-10T09:54:40Z,42.805,6.029,13.3050,4.60059,2469.26,2021-4-10T11:55:48Z
2021-04-10T09:57:43Z,42.805,6.029,13.3004,4.60003,2469.223,2021-4-10T11:58:51Z
2021-04-10T10:00:46Z,42.805,6.029,13.3047,4.60045,2469.293,2021-4-10T12:01:54Z
2021-04-10T10:03:49Z,42.805,6.029,13.3034,4.60019,2469.284,2021-4-10T12:04:57Z
2021-04-10T10:06:52Z,42.805,6.029,13.3023,4.60071,2469.26,2021-4-10T12:08:00Z
2021-04-10T10:09:55Z,42.805,6.029,13.3034,4.60066,2469.293,2021-4-10T12:11:03Z
2021-04-10T10:12:58Z,42.805,6.029,13.3025,4.60071,2469.307,2021-4-10T12:14:07Z
2021-04-10T10:16:01Z,42.805,6.029,13.3024,4.60030,2469.26,2021-4-10T12:17:10Z
2021-04-10T10:19:05Z,42.805,6.029,13.3018,4.60037,2469.246,2021-4-10T12:20:13Z
2021-04-10T10:22:08Z,42.805,6.029,13.3023,4.60040,2469.26,2021-4-10T12:23:16Z
2021-04-10T10:25:11Z,42.805,6.029,13.3019,4.60047,2469.26,2021-4-10T12:26:19Z
2021-04-10T10:28:14Z,42.805,6.029,13.3027,4.60026,2469.237,2021-4-10T12:29:22Z
2021-04-10T10:31:17Z,42.805,6.029,13.3029,4.60042,2469.237,2021-4-10T12:32:25Z
2021-04-10T10:34:20Z,42.805,6.029,13.3031,4.60044,2469.2,2021-4-10T12:35:28Z
2021-04-10T10:37:23Z,42.805,6.029,13.3029,4.60048,2469.223,2021-4-10T12:38:32Z
2021-04-10T10:40:27Z,42.805,6.029,13.3014,4.60008,2469.237,2021-4-10T12:41:35Z
2021-04-10T10:43:30Z,42.805,6.029,13.3004,4.60013,2469.223,2021-4-10T12:44:38Z
2021-04-10T10:46:33Z,42.805,6.029,13.3027,4.60031,2469.223,2021-4-10T12:47:41Z
2021-04-10T10:49:36Z,42.805,6.029,13.3033,4.60060,2469.26,2021-4-10T12:50:44Z
2021-04-10T10:52:39Z,42.805,6.029,13.3015,4.60003,2469.246,2021-4-10T12:53:47Z
2021-04-10T10:55:42Z,42.805,6.029,13.3019,4.60048,2469.223,2021-4-10T12:56:50Z
2021-04-10T10:58:45Z,42.805,6.029,13.3009,4.60046,2469.246,2021-4-10T12:59:54Z
2021-04-10T11:01:48Z,42.805,6.029,13.3027,4.60039,2469.223,2021-4-10T13:02:57Z
2021-04-10T11:04:52Z,42.805,6.029,13.3019,4.60033,2469.237,2021-4-10T13:06:00Z
2021-04-10T11:07:55Z,42.805,6.029,13.3025,4.60045,2469.214,2021-4-10T13:09:03Z
2021-04-10T11:10:58Z,42.805,6.029,13.3009,4.60014,2469.214,2021-4-10T13:12:06Z
2021-04-10T11:14:01Z,42.805,6.029,13.3022,4.60044,2469.237,2021-4-10T13:15:09Z
2021-04-10T11:17:04Z,42.805,6.029,13.3021,4.60044,2469.2,2021-4-10T13:18:12Z
2021-04-10T11:20:07Z,42.805,6.029,13.3018,4.60056,2469.223,2021-4-10T13:21:15Z
2021-04-10T11:23:10Z,42.805,6.029,13.3008,4.60056,2469.223,2021-4-10T13:24:18Z
2021-04-10T11:26:13Z,42.805,6.029,13.3011,4.60059,2469.2,2021-4-10T13:27:22Z
2021-04-10T11:29:17Z,42.805,6.029,13.3032,4.60027,2469.2,2021-4-10T13:30:25Z
2021-04-10T11:32:20Z,42.805,6.029,13.3020,4.60026,2469.19,2021-4-10T13:33:28Z
2021-04-10T11:35:23Z,42.805,6.029,13.3009,4.60031,2469.2,2021-4-10T13:36:31Z
2021-04-10T11:38:26Z,42.805,6.029,13.3029,4.60046,2469.2,2021-4-10T13:39:34Z
2021-04-10T11:41:29Z,42.805,6.029,13.3015,4.60019,2469.223,2021-4-10T13:42:37Z
2021-04-10T11:44:32Z,42.805,6.029,13.3015,4.60069,2469.2,2021-4-10T13:45:40Z
2021-04-10T11:47:35Z,42.805,6.029,13.3022,4.60025,2469.2,2021-4-10T13:48:44Z
2021-04-10T11:50:38Z,42.805,6.029,13.3015,4.60016,2469.2,2021-4-10T13:51:47Z
2021-04-10T11:53:42Z,42.805,6.029,13.2989,4.59990,2469.214,2021-4-10T13:54:50Z
2021-04-10T11:56:45Z,42.805,6.029,13.3007,4.60001,2469.237,2021-4-10T13:57:53Z
2021-04-10T11:59:48Z,42.805,6.029,13.2989,4.59999,2469.176,2021-4-10T14:00:56Z
2021-04-10T12:02:51Z,42.805,6.029,13.2991,4.60019,2469.223,2021-4-10T14:03:59Z
2021-04-10T12:05:54Z,42.805,6.029,13.3008,4.60023,2469.214,2021-4-10T14:07:02Z
2021-04-10T12:08:57Z,42.805,6.029,13.3009,4.60060,2469.223,2021-4-10T14:10:05Z
2021-04-10T12:12:00Z,42.805,6.029,13.3007,4.60055,2469.214,2021-4-10T14:13:09Z
2021-04-10T12:15:03Z,42.805,6.029,13.3003,4.60052,2469.176,2021-4-10T14:16:12Z
2021-04-10T12:18:07Z,42.805,6.029,13.2999,4.60040,2469.19,2021-4-10T14:19:15Z
2021-04-10T12:21:10Z,42.805,6.029,13.3011,4.60008,2469.176,2021-4-10T14:22:18Z
2021-04-10T12:24:13Z,42.805,6.029,13.3029,4.60019,2469.214,2021-4-10T14:25:21Z
2021-04-10T12:27:16Z,42.805,6.029,13.3009,4.60014,2469.176,2021-4-10T14:28:24Z
2021-04-10T12:30:19Z,42.805,6.029,13.3005,4.60034,2469.19,2021-4-10T14:31:27Z
2021-04-10T12:33:22Z,42.805,6.029,13.2986,4.60048,2469.2,2021-4-10T14:34:30Z
2021-04-10T12:36:25Z,42.805,6.029,13.3014,4.60016,2469.176,2021-4-10T14:37:34Z
2021-04-10T12:39:29Z,42.805,6.029,13.3028,4.60002,2469.2,2021-4-10T14:40:37Z
2021-04-10T12:42:32Z,42.805,6.029,13.3014,4.60014,2469.19,2021-4-10T14:43:40Z
2021-04-10T12:45:35Z,42.805,6.029,13.3009,4.60022,2469.176,2021-4-10T14:46:43Z
2021-04-10T12:48:38Z,42.805,6.029,13.3001,4.60036,2469.19,2021-4-10T14:49:46Z
2021-04-10T12:51:41Z,42.805,6.029,13.3004,4.60020,2469.176,2021-4-10T14:52:49Z
2021-04-10T12:54:44Z,42.805,6.029,13.2994,4.60026,2469.2,2021-4-10T14:55:52Z
2021-04-10T12:57:47Z,42.805,6.029,13.3000,4.60031,2469.214,2021-4-10T14:58:56Z
2021-04-10T13:00:50Z,42.805,6.029,13.3012,4.60053,2469.2,2021-4-10T15:01:59Z
2021-04-10T13:03:54Z,42.805,6.029,13.3004,4.60056,2469.214,2021-4-10T15:05:02Z
2021-04-10T13:06:57Z,42.805,6.029,13.3004,4.60072,2469.176,2021-4-10T15:08:05Z
2021-04-10T13:10:00Z,42.805,6.029,13.3006,4.60075,2469.237,2021-4-10T15:11:08Z
2021-04-10T13:13:03Z,42.805,6.029,13.3026,4.60039,2469.2,2021-4-10T15:14:11Z
2021-04-10T13:16:06Z,42.805,6.029,13.3015,4.60042,2469.214,2021-4-10T15:17:14Z
2021-04-10T13:19:09Z,42.805,6.029,13.3021,4.60028,2469.214,2021-4-10T15:20:17Z
2021-04-10T13:22:12Z,42.805,6.029,13.3018,4.60061,2469.2,2021-4-10T15:23:21Z
2021-04-10T13:25:15Z,42.805,6.029,13.3010,4.60061,2469.26,2021-4-10T15:26:24Z
2021-04-10T13:28:19Z,42.805,6.029,13.3016,4.60092,2469.214,2021-4-10T15:29:27Z
2021-04-10T13:31:22Z,42.805,6.029,13.3006,4.60076,2469.2,2021-4-10T15:32:30Z
2021-04-10T13:34:25Z,42.805,6.029,13.3011,4.60092,2469.237,2021-4-10T15:35:33Z
2021-04-10T13:37:28Z,42.805,6.029,13.3028,4.60048,2469.223,2021-4-10T15:38:36Z
2021-04-10T13:40:31Z,42.805,6.029,13.2998,4.60066,2469.214,2021-4-10T15:41:39Z
2021-04-10T13:43:34Z,42.805,6.029,13.3006,4.60082,2469.237,2021-4-10T15:44:42Z
2021-04-10T13:46:37Z,42.805,6.029,13.3011,4.60075,2469.223,2021-4-10T15:47:46Z
2021-04-10T13:49:40Z,42.805,6.029,13.3005,4.60059,2469.223,2021-4-10T15:50:49Z
2021-04-10T13:52:44Z,42.805,6.029,13.3014,4.60059,2469.214,2021-4-10T15:53:52Z
2021-04-10T13:55:47Z,42.805,6.029,13.3004,4.60032,2469.214,2021-4-10T15:56:55Z
2021-04-10T13:58:50Z,42.805,6.029,13.3000,4.60039,2469.26,2021-4-10T15:59:58Z
2021-04-10T14:01:53Z,42.805,6.029,13.3021,4.60079,2469.26,2021-4-10T16:03:01Z
2021-04-10T14:04:56Z,42.805,6.029,13.3011,4.60056,2469.246,2021-4-10T16:06:04Z
2021-04-10T14:07:59Z,42.805,6.029,13.3008,4.60041,2469.223,2021-4-10T16:09:07Z
2021-04-10T14:11:02Z,42.805,6.029,13.2999,4.60053,2469.237,2021-4-10T16:12:11Z
2021-04-10T14:14:05Z,42.805,6.029,13.3001,4.60071,2469.223,2021-4-10T16:15:14Z
2021-04-10T14:17:09Z,42.805,6.029,13.3011,4.60089,2469.237,2021-4-10T16:18:17Z
2021-04-10T14:20:12Z,42.805,6.029,13.3009,4.60058,2469.246,2021-4-10T16:21:20Z
2021-04-10T14:23:15Z,42.805,6.029,13.3000,4.60061,2469.246,2021-4-10T16:24:23Z
2021-04-10T14:26:18Z,42.805,6.029,13.3004,4.60035,2469.26,2021-4-10T16:27:26Z
2021-04-10T14:29:21Z,42.805,6.029,13.3007,4.60104,2469.223,2021-4-10T16:30:29Z
2021-04-10T14:32:24Z,42.805,6.029,13.3004,4.60064,2469.26,2021-4-10T16:33:32Z
2021-04-10T14:35:27Z,42.805,6.029,13.3021,4.60067,2469.27,2021-4-10T16:36:36Z
2021-04-10T14:38:30Z,42.805,6.029,13.3004,4.60066,2469.237,2021-4-10T16:39:39Z
2021-04-10T14:41:34Z,42.805,6.029,13.3011,4.60073,2469.246,2021-4-10T16:42:42Z
2021-04-10T14:44:37Z,42.805,6.029,13.3020,4.60059,2469.237,2021-4-10T16:45:45Z
2021-04-10T14:47:40Z,42.805,6.029,13.3011,4.60087,2469.246,2021-4-10T16:48:48Z
2021-04-10T14:50:43Z,42.805,6.029,13.3005,4.60069,2469.26,2021-4-10T16:51:51Z
2021-04-10T14:53:46Z,42.805,6.029,13.3008,4.60087,2469.26,2021-4-10T16:54:54Z
2021-04-10T14:56:49Z,42.805,6.029,13.3012,4.60070,2469.26,2021-4-10T16:57:57Z
2021-04-10T14:59:52Z,42.805,6.029,13.3002,4.60073,2469.284,2021-4-10T17:01:01Z
2021-04-10T15:02:55Z,42.805,6.029,13.3002,4.60048,2469.26,2021-4-10T17:04:04Z
2021-04-10T15:05:59Z,42.805,6.029,13.3004,4.60047,2469.27,2021-4-10T17:07:07Z
2021-04-10T15:09:02Z,42.805,6.029,13.3006,4.60074,2469.27,2021-4-10T17:10:10Z
2021-04-10T15:12:05Z,42.805,6.029,13.2998,4.60064,2469.27,2021-4-10T17:13:13Z
2021-04-10T15:15:08Z,42.805,6.029,13.2992,4.60040,2469.27,2021-4-10T17:16:16Z